Back to catalog

SCOUT G-1 R/B

AlivePO
NORAD 19072·ROCKET BODY·🇺🇸 United States

Launched Apr 26, 1988 from Vandenberg Space Force Base

Loading…

Next Passes (next 24 hours)

TLE

FreshSource: Space-Track

Epoch: Sep 14, 2026, 15:07 UTC

1 19072U 88033C   26257.63012514  .00000026  00000-0  33870-4 0  9998
2 19072  90.3356  24.9071 0190024 148.3460 225.1665 13.27506467858821

Track SCOUT G-1 R/B in real time with AllMySat

Download on the App Store